Weather observations for the past three days for
Borger, Hutchinson County Airport
Imperial (Metric)
Date Time (cdt) Wind (mph) Vis. (mi.) Weather Sky Cond. Temperature (ºF) Relative Humidity Wind Chill (°F) Heat Index (°F) Pressure Precipitation (in)
Air Dwpt 6 hour altimeter (in) sea level (mb) 1 hr 3 hr 6 hr
Max. Min.
17 18:51 S 23 G 40 10.00 Fair and Breezy CLR 93.9 66 98.1 93 40% 97 29.65 998.8
17 17:51 S 23 G 41 10.00 Fair and Breezy CLR 96.1 64.9 36% 99 29.65 998.7
17 16:51 S 28 G 43 10.00 A Few Clouds and Windy FEW065 97 64.9 35% 100 29.67 999.1
17 15:51 S 20 G 40 10.00 A Few Clouds FEW070 97 64.9 35% 100 29.69 999.9
17 14:51 S 21 G 33 10.00 A Few Clouds and Breezy FEW060 96.1 64.9 36% 99 29.71 1000.7
17 13:51 S 21 G 33 10.00 Fair and Breezy CLR 96.1 64.9 36% 99 29.72 1000.8
17 12:51 S 20 G 30 10.00 Fair CLR 93 66 93 73.9 41% 96 29.74 1001.8
17 11:51 S 17 G 30 10.00 Fair CLR 91 64.9 42% 93 29.75 1002.1
17 10:51 S 18 G 32 10.00 Fair CLR 87.1 64.9 48% 89 29.77 1002.9
17 09:51 S 16 G 30 10.00 Fair CLR 82.9 64.9 55% 85 29.78 1003.3
17 08:51 S 15 G 28 10.00 Fair CLR 79 64.9 62% 81 29.79 1003.8
17 07:51 S 17 G 25 10.00 Fair CLR 73.9 66 76% 29.78 1003.4
17 06:51 S 13 G 28 10.00 Fair CLR 75 66 81 75 74% 76 29.78 1003.1
17 05:51 S 14 G 31 10.00 Fair CLR 75.9 66 72% 77 29.76 1002.4
17 04:51 S 22 G 30 10.00 Fair and Breezy CLR 75.9 66 72% 77 29.77 1002.6
17 03:51 S 22 G 35 10.00 Fair and Breezy CLR 77 66 69% 79 29.76 1002.4
17 02:51 S 20 G 38 10.00 Fair CLR 78.1 66 67% 80 29.77 1002.7
17 01:51 S 24 G 39 10.00 Fair and Breezy CLR 80.1 66 62% 82 29.77 1002.7
17 00:51 S 26 G 41 10.00 Fair and Windy CLR 81 64.9 97 81 58% 83 29.78 1003.0
16 23:51 S 25 G 37 10.00 Fair and Breezy CLR 82.9 64.9 55% 85 29.79 1003.3
16 22:51 S 21 G 33 10.00 Fair and Breezy CLR 84 64 51% 85 29.78 1003.2
16 21:51 SE 20 G 35 10.00 Fair CLR 86 64 48% 87 29.76 1002.6
16 20:51 SE 14 G 31 10.00 Fair CLR 89.1 64 43% 90 29.75 1002.4
16 19:51 S 18 G 30 10.00 Fair CLR 93 64 38% 95 29.74 1002.2
16 18:51 S 26 G 38 10.00 Fair and Windy CLR 97 62.1 100 93.9 32% 98 29.74 1001.7
16 17:51 S 18 G 31 10.00 Fair CLR 99 61 29% 100 29.75 1002.1
16 16:51 S 16 G 30 10.00 Fair CLR 99 62.1 30% 100 29.76 1002.5
16 15:51 S 20 G 32 10.00 Fair CLR 99 61 29% 100 29.78 1002.9
16 14:51 S 20 G 31 10.00 Fair CLR 98.1 61 29% 99 29.8 1003.8
16 13:51 S 16 G 29 10.00 Fair CLR 98.1 60.1 28% 98 29.82 1004.5
16 12:51 S 17 G 28 10.00 Fair CLR 93.9 63 93.9 72 36% 95 29.84 1005.2
16 11:51 S 12 G 25 10.00 Fair CLR 90 63 41% 91 29.86 1006.0
16 10:51 S 18 G 25 10.00 Fair CLR 88 63 43% 89 29.87 1006.1
16 09:51 SW 15 10.00 Fair CLR 84 62.1 48% 85 29.86 1006.2
16 08:51 S 8 G 18 10.00 Fair CLR 78.1 64.9 64% 80 29.87 1006.5
16 07:51 S 10 10.00 Fair CLR 73 64 74% 29.87 1006.5
16 06:51 S 7 10.00 Fair CLR 73 64 80.1 72 74% 29.87 1006.6
16 05:51 SW 3 10.00 Fair CLR 73 63 71% 29.86 1006.1
16 04:51 S 14 G 24 10.00 Fair CLR 73.9 63 69% 29.86 1005.9
16 03:51 S 16 G 28 10.00 Fair CLR 75.9 63 64% 78 29.84 1005.3
16 02:51 S 20 G 32 10.00 Fair CLR 77 63 62% 79 29.84 1005.4
16 01:51 S 21 G 32 10.00 Fair and Breezy CLR 78.1 62.1 58% 80 29.86 1006.0
16 00:51 S 17 G 35 10.00 Fair CLR 80.1 62.1 93 80.1 54% 81 29.85 1005.9
15 23:51 S 21 G 33 10.00 Fair and Breezy CLR 81 62.1 53% 82 29.87 1006.6
15 22:51 S 17 G 29 10.00 Fair CLR 82.9 63 51% 84 29.86 1006.2
15 21:51 S 13 G 29 10.00 NULL NULL 84 64 51% 85 29.84 1005.6
15 20:51 S 16 G 32 10.00 Fair CLR 88 63 43% 89 29.83 1005.2
15 19:51 S 14 G 29 10.00 Fair CLR 91.9 60.1 34% 92 29.82 1004.8
15 18:51 S 15 G 26 10.00 A Few Clouds FEW110 93 61 93.9 87.1 34% 93 29.83 1005.2
15 17:51 S 13 G 26 10.00 A Few Clouds FEW075 FEW100 93 61 34% 93 29.85 1005.8
15 16:51 S 15 G 24 10.00 Mostly Cloudy BKN070 BKN085 93 61 34% 93 29.87 1006.6
15 15:51 SW 15 G 26 10.00 A Few Clouds FEW065 91.9 62.1 37% 93 29.89 1007.3
15 14:51 SW 16 G 25 10.00 Partly Cloudy SCT060 SCT075 91.9 64 40% 94 29.91 1007.9
15 13:51 SW 15 G 26 10.00 Mostly Cloudy SCT050 BKN065 91 64 41% 93 29.94 1008.9
15 12:51 SW 14 G 23 10.00 Mostly Cloudy SCT049 BKN110 87.1 64 87.1 72 46% 88 29.97 1010.2
15 11:51 Vrbl 6 10.00 Partly Cloudy SCT110 82.9 62.1 49% 84 29.99 1011.2
15 10:51 SW 10 10.00 Thunderstorm in Vicinity SCT100 81 60.1 49% 82 30 1011.8
15 09:51 SW 12 10.00 A Few Clouds FEW110 77 61 58% 79 30.01 1011.9
15 08:51 W 14 G 22 10.00 Fair CLR 75 60.1 60% 77 29.99 1011.5
15 07:51 SW 12 10.00 Fair CLR 73 59 62% 29.98 1010.3
15 06:51 S 16 G 26 10.00 Fair CLR 72 60.1 78.1 71.1 66% 29.96 1009.9 0.05
15 05:51 S 20 G 36 10.00 Fair CLR 73 57.9 59% 29.94 1008.9
15 04:51 S 18 G 32 10.00 Fair CLR 75 55 50% 78 29.94 1008.6
15 03:51 S 26 G 46 10.00 Partly Cloudy and Windy FEW065 FEW095 SCT110 73 55.9 55% 29.92 1008.1 0.05
15 02:51 S 24 G 43 10.00 Light Rain and Breezy FEW110 75 55.9 52% 78 29.97 1009.7
15 01:51 SW 18 G 30 10.00 A Few Clouds FEW095 FEW120 72 59 64% 30.02 1011.7 0.05
15 00:51 S 20 G 36 10.00 Thunderstorm Light Rain SCT080 BKN100 BKN120 71.1 62.1 90 69.1 73% 30.11 1014.7 0.07
14 23:51 N 7 10.00 Light Rain FEW060 SCT080 BKN110 70 64 82% 30.09 1014.1 0.03
14 22:51 W 14 G 23 10.00 Thunderstorm Light Rain FEW049 BKN070 OVC085 69.1 64.9 87% 30.15 1016.4 0.04
14 21:51 Calm 10.00 Fair CLR 77 59 54% 79 30.06 1013.1
14 20:51 NW 9 10.00 Mostly Cloudy SCT070 BKN090 77 59 54% 79 30.05 1013.2
14 19:51 S 12 G 24 10.00 Fair CLR 90 59 35% 89 29.99 1010.7
Date Time (cdt) Wind (mph) Vis. (mi.) Weather Sky Cond. Air Dwpt Max. Min. Relative Humidity Wind Chill (°F) Heat Index (°F) altimeter (in) sea level (mb) 1 hr 3 hr 6 hr
6 hour
Temperature (ºF) Pressure Precipitation (in)